Terminal Aerodrome Forecast
Issued by NWS

Home | Current Version | Previous Version | Text Only | Print | Product List | Glossary On
Versions: 1 2 3 4 5 6 7 8 9 10 11 12 13 14 15 16 17 18 19 20 21 22 23 24 25 26 27 28 29 30
000
FTPQ31 PGUM 020500
TAFPQ
TAF

PTRO 020523Z 0206/0306 24010G18KT P6SM VCSH BKN016 BKN120
      TEMPO 0207/0211 5SM SHRA OVC015=

USA.gov is the U.S. government's official web portal to all federal, state and local government web resources and services.